15 daagse weersverwachting Narvik (NO)

  • Overzicht
  • Per uur
  • 15 dagen
  • Extra
  • Vergelijk
  • Kaarten
  • Dagkaart
  • Meer »
  • Info
  • Statistieken
  • Directe link
    Temp 6h Neerslag Wind  
 05:21     20:24    Daglengte: 15:03 Vandaag
14:00
-1°
 
5
20:00
-1°
 
5
 05:16     20:28    Daglengte: 15:12 Morgen
02:00
-2°
2.8 mm
5
warningclass
08:00
-3°
4.5 mm
5
warningclass
14:00
-1°
5.2 mm
6
warningclass
20:00
-2°
9.5 mm
4
warningclass
 05:12     20:32    Daglengte: 15:20 Zaterdag 11 Apr
02:00
-3°
6.1 mm
5
warningclass
08:00
-2°
5.2 mm
5
warningclass
14:00
13.4 mm
5
warningclass
20:00
-1°
2.7 mm
4
warningclass
 05:08     20:36    Daglengte: 15:28 Zondag 12 Apr
02:00
-2°
24.1 mm
2
warningclass
08:00
-2°
29.9 mm
2
warningclass
Locatie info
Region: Nordland
Latitude: 68.4395°N
Longitude: 17.4301°E
100 masl
Postcode: 8514
Temp/Neerslag /Baro Onweer/DauwpuntSneeuw
    Temp Baro 1h Neerslag Dauwpunt Wind UV BewolkingSneeuw  
 05:21     20:24    Daglengte: 15:03 Vandaag
14:00
-1°
Voelt als: -6.1°
1012.5 hPa
49%
-7.4°
5
Windvlaag: 6 km/h
42%10 cm
15:00
-1°
Voelt als: -5.8°
1013.0 hPa
26%
-7.7°
4
Windvlaag: 6.1 km/h
41%10 cm
16:00
-1°
Voelt als: -4.9°
1013.3 hPa
74%
-7.6°
3
Windvlaag: 5.5 km/h
43%10 cm
17:00
-1°
Voelt als: -4.5°
1013.3 hPa
44%
-7.3°
3
Windvlaag: 4.5 km/h
51%9 cm
18:00
-1°
Voelt als: -4.9°
1013.1 hPa
82%
-6.6°
3
Windvlaag: 4 km/h
74%9 cm
19:00
-1°
Voelt als: -5.7°
1012.6 hPa
82%
-5.4°
4
Windvlaag: 5 km/h
80%9 cm
20:00
-1°
Voelt als: -6.6°
1012.4 hPa
82%
-3.6°
5
Windvlaag: 7.4 km/h
86%10 cm
21:00
-1°
Voelt als: -6.8°
1012.5 hPa
82%
-3.0°
5
Windvlaag: 8.4 km/h
82%11 cm
22:00
-2°
Voelt als: -6.8°
1012.6 hPa
81%
-3.3°
5
Windvlaag: 6.6 km/h
65%11 cm
23:00
-2°
Voelt als: -7.4°
1012.9 hPa
80%
-3.8°
5
Windvlaag: 6.5 km/h
86%11 cm
 05:16     20:28    Daglengte: 15:12 Morgen
00:00
-2°
Voelt als: -7.7°
1012.9 hPa
82%
-4.2°
6
Windvlaag: 6.9 km/h
77%12 cm
01:00
-2°
Voelt als: -7.9°
1013.1 hPa 1.4 mm
82%
-4.4°
5
Windvlaag: 6.8 km/h
58%12 cm warningclass
02:00
-2°
Voelt als: -8.1°
1013.4 hPa 1.4 mm
82%
-4.4°
5
Windvlaag: 6.3 km/h
86%12 cm warningclass
03:00
-3°
Voelt als: -8.3°
1013.5 hPa 1.6 mm
80%
-4.7°
5
Windvlaag: 6.7 km/h
75%13 cm warningclass
04:00
-3°
Voelt als: -8.5°
1013.6 hPa 1.5 mm
77%
-4.9°
5
Windvlaag: 6.7 km/h
65%13 cm warningclass
05:00
-3°
Voelt als: -8.3°
1013.5 hPa
77%
-5.6°
4
Windvlaag: 5.4 km/h
66%13 cm
06:00
-3°
Voelt als: -8.3°
1013.4 hPa 1.3 mm
70%
-5.4°
4
Windvlaag: 4.7 km/h
70%13 cm warningclass
07:00
-3°
Voelt als: -8.3°
1013.3 hPa
67%
-4.8°
5
Windvlaag: 5.8 km/h
76%13 cm
08:00
-3°
Voelt als: -8.1°
1013.2 hPa
68%
-4.3°
5
Windvlaag: 7.2 km/h
78%13 cm
09:00
-2°
Voelt als: -7.7°
1013.0 hPa 1.3 mm
69%
-5.0°
5
Windvlaag: 7.1 km/h
79%13 cm warningclass
10:00
-2°
Voelt als: -7.2°
1012.8 hPa
69%
-5.0°
5
Windvlaag: 8.1 km/h
86%13 cm
11:00
-2°
Voelt als: -6.8°
1012.7 hPa 1.4 mm
67%
-4.1°
5
Windvlaag: 8.6 km/h
78%13 cm warningclass
12:00
-1°
Voelt als: -6.3°
1012.4 hPa
61%
-4.2°
5
Windvlaag: 7.7 km/h
84%13 cm
13:00
-1°
Voelt als: -6.0°
1012.2 hPa 1.4 mm
61%
-4.4°
5
Windvlaag: 6.6 km/h
86%13 cm warningclass
14:00
-1°
Voelt als: -6.0°
1012.3 hPa 1.1 mm
61%
-4.7°
6
Windvlaag: 8.3 km/h
88%13 cm warningclass
15:00
-1°
Voelt als: -5.5°
1012.4 hPa 1.8 mm
76%
-4.9°
5
Windvlaag: 8.7 km/h
88%13 cm warningclass
16:00
-1°
Voelt als: -5.9°
1012.6 hPa 1.3 mm
82%
-3.4°
5
Windvlaag: 6.7 km/h
83%13 cm warningclass
17:00
-1°
Voelt als: -6.6°
1012.9 hPa 1.4 mm
82%
-4.8°
6
Windvlaag: 7.6 km/h
83%13 cm warningclass
18:00
-1°
Voelt als: -6.2°
1013.6 hPa 1.6 mm
82%
-4.1°
5
Windvlaag: 8 km/h
79%13 cm warningclass
19:00
-1°
Voelt als: -6.9°
1014.2 hPa 1.8 mm
82%
-3.8°
5
Windvlaag: 7.8 km/h
83%14 cm warningclass
20:00
-2°
Voelt als: -6.6°
1014.8 hPa 1.6 mm
82%
-4.6°
4
Windvlaag: 7.2 km/h
60%14 cm warningclass
21:00
-2°
Voelt als: -6.9°
1015.3 hPa 2.0 mm
80%
-4.9°
4
Windvlaag: 5.7 km/h
59%14 cm warningclass
22:00
-2°
Voelt als: -7.2°
1015.8 hPa 2.0 mm
80%
-4.7°
4
Windvlaag: 4.8 km/h
71%15 cm warningclass
23:00
-2°
Voelt als: -7.2°
1016.3 hPa 2.1 mm
79%
-4.8°
4
Windvlaag: 4.4 km/h
59%15 cm warningclass
 05:12     20:32    Daglengte: 15:20 Zaterdag 11 Apr
00:00
-3°
Voelt als: -7.4°
1016.8 hPa
76%
-4.7°
4
Windvlaag: 4.8 km/h
76%16 cm
01:00
-3°
Voelt als: -7.9°
1017.2 hPa
76%
-4.0°
4
Windvlaag: 5.5 km/h
78%16 cm
02:00
-3°
Voelt als: -7.9°
1017.6 hPa
42%
-3.5°
5
Windvlaag: 6.4 km/h
77%16 cm
03:00
-2°
Voelt als: -7.4°
1018.0 hPa
79%
-3.9°
4
Windvlaag: 5.3 km/h
70%16 cm
04:00
-2°
Voelt als: -8.1°
1018.1 hPa
79%
-4.0°
5
Windvlaag: 6.4 km/h
78%16 cm
05:00
-2°
Voelt als: -8.1°
1018.3 hPa 2.3 mm
82%
-3.7°
5
Windvlaag: 6.2 km/h
78%16 cm warningclass
06:00
-2°
Voelt als: -7.0°
1018.3 hPa
78%
-4.8°
4
Windvlaag: 6.3 km/h
72%16 cm
07:00
-2°
Voelt als: -7.0°
1018.4 hPa 2.9 mm
76%
-4.3°
4
Windvlaag: 5.2 km/h
86%16 cm warningclass
08:00
-2°
Voelt als: -6.9°
1018.2 hPa
71%
-3.6°
5
Windvlaag: 5.6 km/h
84%16 cm
09:00
-1°
Voelt als: -6.6°
1018.2 hPa
82%
-3.5°
5
Windvlaag: 7.3 km/h
89%16 cm
10:00
-1°
Voelt als: -5.9°
1018.2 hPa 2.5 mm
82%
-3.3°
5
Windvlaag: 8.3 km/h
84%16 cm warningclass
11:00
-0°
Voelt als: -5.8°
1018.3 hPa 3.0 mm
100%
-3.9°
6
Windvlaag: 8.2 km/h
84%16 cm warningclass
12:00
-0°
Voelt als: -5.2°
1018.2 hPa 2.6 mm
100%
-4.6°
6
Windvlaag: 7.4 km/h
82%15 cm warningclass
13:00
Voelt als: -4.9°
1018.1 hPa 2.7 mm
100%
-4.6°
5
Windvlaag: 7.4 km/h
81%15 cm warningclass
14:00
Voelt als: -4.6°
1018.0 hPa 2.6 mm
100%
-4.2°
5
Windvlaag: 7.2 km/h
92%14 cm warningclass
15:00
Voelt als: -4.9°
1017.8 hPa
98%
-2.7°
6
Windvlaag: 7.5 km/h
97%14 cm
16:00
-0°
Voelt als: -4.9°
1017.2 hPa 2.7 mm
100%
-3.0°
5
Windvlaag: 7.8 km/h
98%14 cm warningclass
17:00
Voelt als: -5.2°
1016.6 hPa
100%
-2.6°
6
Windvlaag: 7.7 km/h
85%14 cm
18:00
-0°
Voelt als: -5.8°
1016.2 hPa
100%
-3.7°
7
Windvlaag: 9.2 km/h
86%14 cm
19:00
-0°
Voelt als: -5.3°
1015.5 hPa
100%
-2.5°
5
Windvlaag: 9 km/h
95%14 cm
20:00
-1°
Voelt als: -5.2°
1014.8 hPa
100%
-3.3°
4
Windvlaag: 6.6 km/h
98%14 cm
21:00
-1°
Voelt als: -5.3°
1014.0 hPa 4.4 mm
100%
-3.6°
4
Windvlaag: 3.2 km/h
95%14 cm warningclass
22:00
-2°
Voelt als: -5.6°
1013.2 hPa 2.7 mm
100%
-4.1°
3
Windvlaag: 3.5 km/h
95%14 cm warningclass
23:00
-2°
Voelt als: -5.6°
1012.3 hPa 2.8 mm
100%
-4.3°
3
Windvlaag: 5 km/h
95%14 cm warningclass
 05:08     20:36    Daglengte: 15:28 Zondag 12 Apr
00:00
-2°
Voelt als: -5.4°
1011.2 hPa 4.7 mm
100%
-4.4°
3
Windvlaag: 5.2 km/h
97%14 cm warningclass
01:00
-2°
Voelt als: -5.2°
1010.2 hPa 4.7 mm
100%
-4.5°
2
Windvlaag: 4.2 km/h
97%14 cm warningclass
02:00
-2°
Voelt als: -5.3°
1009.3 hPa 4.8 mm
100%
-4.5°
2
Windvlaag: 2.2 km/h
92%14 cm warningclass
03:00
-2°
Voelt als: -5.3°
1008.3 hPa 5.3 mm
100%
-4.6°
2
Windvlaag: 4.9 km/h
91%14 cm warningclass
04:00
-2°
Voelt als: -5.3°
1007.4 hPa 5.3 mm
100%
-4.7°
2
Windvlaag: 4.4 km/h
91%14 cm warningclass
05:00
-2°
Voelt als: -5.3°
1006.6 hPa 4.9 mm
100%
-4.6°
2
Windvlaag: 3.8 km/h
90%14 cm warningclass
06:00
-2°
Voelt als: -5.4°
1005.7 hPa 5.1 mm
100%
-4.7°
2
Windvlaag: 3.3 km/h
86%14 cm warningclass
07:00
-2°
Voelt als: -5.2°
1004.9 hPa 4.6 mm
96%
-5.2°
2
Windvlaag: 2.8 km/h
84%14 cm warningclass
08:00
-2°
Voelt als: -5.6°
1004.1 hPa 4.7 mm
97%
-5.1°
2
Windvlaag: 1.5 km/h
84%14 cm warningclass
09:00
-1°
Voelt als: -4.7°
1003.8 hPa 4.7 mm
96%
-4.6°
3
Windvlaag: 5.4 km/h
93%14 cm warningclass
10:00
-1°
Voelt als: -4.6°
1003.3 hPa 4.7 mm
98%
-4.2°
3
Windvlaag: 4.9 km/h
76%14 cm warningclass
11:00
-1°
Voelt als: -4.6°
1002.8 hPa 4.6 mm
98%
-4.0°
3
Windvlaag: 6.2 km/h
93%14 cm warningclass
12:00
-0°
Voelt als: -3.8°
1002.5 hPa 4.6 mm
97%
-3.7°
3
Windvlaag: 6.2 km/h
98%13 cm warningclass
13:00
Voelt als: -3.5°
1002.3 hPa
92%
-3.5°
3
Windvlaag: 7.2 km/h
69%13 cm
Temp/Neerslag /Baro Onweer/DauwpuntSneeuw
    Temp Baro Neerslag Dauwpunt Wind BewolkingSneeuw  
 05:21     20:24    Daglengte: 15:03 Vandaag
14:00
-1°
Voelt als: -6.1°
1012.5 hPa   -7.4°
5
42%10 cm
17:00
-1°
Voelt als: -4.5°
1013.3 hPa   -7.3°
3
51%9 cm
20:00
-1°
Voelt als: -6.6°
1012.4 hPa   -3.6°
5
86%10 cm
23:00
-2°
Voelt als: -7.4°
1012.9 hPa   -3.8°
5
86%11 cm
 05:16     20:28    Daglengte: 15:12 Morgen
02:00
-2°
Voelt als: -8.1°
1013.4 hPa 2.8 mm -4.4°
5
86%12 cm warningclass
05:00
-3°
Voelt als: -8.3°
1013.5 hPa 3.1 mm -5.6°
4
66%13 cm warningclass
08:00
-3°
Voelt als: -8.1°
1013.2 hPa 1.3 mm -4.3°
5
78%13 cm warningclass
11:00
-2°
Voelt als: -6.8°
1012.7 hPa 2.7 mm -4.1°
5
78%13 cm warningclass
14:00
-1°
Voelt als: -6.0°
1012.3 hPa 2.5 mm -4.7°
6
88%13 cm warningclass
17:00
-1°
Voelt als: -6.6°
1012.9 hPa 4.5 mm -4.8°
6
83%13 cm warningclass
20:00
-2°
Voelt als: -6.6°
1014.8 hPa 5.0 mm -4.6°
4
60%14 cm warningclass
23:00
-2°
Voelt als: -7.2°
1016.3 hPa 6.1 mm -4.8°
4
59%15 cm warningclass
 05:12     20:32    Daglengte: 15:20 Zaterdag 11 Apr
02:00
-3°
Voelt als: -7.9°
1017.6 hPa   -3.5°
5
77%16 cm
05:00
-2°
Voelt als: -8.1°
1018.3 hPa 2.3 mm -3.7°
5
78%16 cm warningclass
08:00
-2°
Voelt als: -6.9°
1018.2 hPa 2.9 mm -3.6°
5
84%16 cm warningclass
11:00
-0°
Voelt als: -5.8°
1018.3 hPa 5.5 mm -3.9°
6
84%16 cm warningclass
14:00
Voelt als: -4.6°
1018.0 hPa 7.9 mm -4.2°
5
92%14 cm warningclass
17:00
Voelt als: -5.2°
1016.6 hPa 2.7 mm -2.6°
6
85%14 cm warningclass
20:00
-1°
Voelt als: -5.2°
1014.8 hPa   -3.3°
4
98%14 cm
23:00
-2°
Voelt als: -5.6°
1012.3 hPa 10.0 mm -4.3°
3
95%14 cm warningclass
 05:08     20:36    Daglengte: 15:28 Zondag 12 Apr
02:00
-2°
Voelt als: -5.3°
1009.3 hPa 14.2 mm -4.5°
2
92%14 cm warningclass
05:00
-2°
Voelt als: -5.3°
1006.6 hPa 15.5 mm -4.6°
2
90%14 cm warningclass
08:00
-2°
Voelt als: -5.6°
1004.1 hPa 14.4 mm -5.1°
2
84%14 cm warningclass
11:00
-1°
Voelt als: -4.6°
1002.8 hPa 14.0 mm -4.0°
3
93%14 cm warningclass
14:00
Voelt als: -3.6°
1002.3 hPa 13.4 mm -3.6°
3
90%13 cm warningclass
17:00
Voelt als: -2.4°
1000.6 hPa 25.2 mm -2.6°
2
91%
20:00
-0°
Voelt als: -3.1°
1001.1 hPa 26.4 mm -2.5°
2
91%
23:00
-0°
Voelt als: -3.2°
1002.4 hPa 26.9 mm -2.3°
2
91%
 05:03     20:40    Daglengte: 15:37 Maandag 13 Apr
02:00
-1°
Voelt als: -3.5°
1003.6 hPa 27.9 mm -2.1°
2
92%
05:00
-1°
Voelt als: -4.1°
1007.3 hPa 27.9 mm -3.0°
2
85%
08:00
-1°
Voelt als: -4.4°
1010.9 hPa 28.2 mm -3.0°
3
78%
11:00
-1°
Voelt als: -4.7°
1012.5 hPa 28.3 mm -3.5°
4
68%
14:00
Voelt als: -4.7°
1014.2 hPa 28.4 mm -4.1°
5
58%
17:00
-0°
Voelt als: -4.3°
1014.4 hPa 28.4 mm -4.1°
4
72%
20:00
-1°
Voelt als: -3.8°
1014.7 hPa 28.4 mm -4.1°
2
87%
23:00
-1°
Voelt als: -4.5°
1012.8 hPa 28.4 mm -4.2°
3
89%
 04:59     20:44    Daglengte: 15:45 Dinsdag 14 Apr
02:00
-1°
Voelt als: -5.0°
1010.7 hPa 28.4 mm -4.2°
3
92%
05:00
-1°
Voelt als: -5.4°
1006.0 hPa 28.7 mm -3.5°
5
92%
08:00
Voelt als: -5.3°
1001.3 hPa 29.2 mm -2.9°
6
92%
11:00
Voelt als: -3.8°
998.8 hPa 32.0 mm -1.4°
6
92%
14:00
Voelt als: -2.3°
996.4 hPa 34.6 mm -0.0°
6
92%
17:00
Voelt als: -2.1°
996.1 hPa 36.3 mm 0.5°
6
92%
20:00
Voelt als: -1.9°
995.8 hPa 37.7 mm 1.0°
5
92%
23:00
Voelt als: -1.6°
995.1 hPa 39.0 mm 1.3°
5
92%
 04:54     20:48    Daglengte: 15:54 Woensdag 15 Apr
02:00
Voelt als: -1.2°
994.4 hPa 39.6 mm 1.6°
4
92%
05:00
Voelt als: -1.6°
994.8 hPa 40.2 mm 1.5°
5
92%
08:00
Voelt als: -2.0°
995.1 hPa 42.1 mm 1.4°
5
92%
11:00
Voelt als: -1.9°
996.8 hPa 47.0 mm 2.0°
7
92%
14:00
Voelt als: -1.5°
998.5 hPa 54.2 mm 2.5°
8
92%
17:00
Voelt als: -2.2°
998.0 hPa 58.6 mm 2.0°
9
92%
20:00
Voelt als: -3.0°
997.7 hPa 64.2 mm 1.6°
9
92%
23:00
Voelt als: -2.4°
998.5 hPa 67.6 mm 1.7°
7
92%
 04:50     20:52    Daglengte: 16:02 Donderdag 16 Apr
02:00
Voelt als: -1.4°
999.3 hPa 71.4 mm 1.8°
5
92%
05:00
Voelt als: -2.4°
998.7 hPa 74.6 mm 1.4°
6
91%
08:00
Voelt als: -3.2°
998.0 hPa 77.0 mm 1.1°
8
90%
11:00
Voelt als: -2.4°
998.3 hPa   1.5°
7
91%
14:00
Voelt als: -1.5°
998.5 hPa 158.7 mm 1.9°
7
91%
20:00
Voelt als: -2.6°
1002.5 hPa 162.5 mm 1.0°
6
86%
 04:45     20:56    Daglengte: 16:11 Vrijdag 17 Apr
02:00
Voelt als: -2.1°
1004.3 hPa 164.2 mm 0.0°
3
74%
08:00
Voelt als: -1.3°
1011.0 hPa 165.6 mm -0.2°
2
84%
14:00
Voelt als: 0.3°
1013.9 hPa 167.9 mm 0.0°
3
88%
20:00
Voelt als: -3.4°
1012.5 hPa 172.6 mm 0.1°
8
92%
 04:41     21:00    Daglengte: 16:19 Zaterdag 18 Apr
02:00
Voelt als: -0.9°
1011.1 hPa 182.3 mm 1.9°
5
92%
08:00
Voelt als: -0.2°
1015.6 hPa 212.9 mm 0.6°
3
87%
14:00
Voelt als: 1.6°
1016.0 hPa 248.4 mm 2.2°
4
91%
20:00
Voelt als: -0.4°
1014.2 hPa 266.4 mm 3.6°
8
92%
 04:36     21:05    Daglengte: 16:29 Zondag 19 Apr
02:00
Voelt als: -1.5°
1020.8 hPa 276.1 mm 2.6°
5
1%
08:00
Voelt als: -3.5°
1004.7 hPa 1.3 mm -0.2°
5
72%
14:00
Voelt als: -1.7°
1005.7 hPa 2.2 mm 1.6°
5
76%
20:00
Voelt als: -3.6°
1007.0 hPa 2.1 mm -0.4°
4
81%
 04:32     21:09    Daglengte: 16:37 Maandag 20 Apr
02:00
-1°
Voelt als: -5.6°
1008.8 hPa 1.7 mm -2.8°
3
74%
08:00
Voelt als: -3.7°
1010.0 hPa 1.3 mm -1.4°
3
74%
14:00
Voelt als: -1.4°
1010.8 hPa 1.4 mm 0.7°
3
72%
20:00
Voelt als: -2.8°
1009.8 hPa 1.7 mm -1.0°
3
71%
 04:27     21:13    Daglengte: 16:46 Dinsdag 21 Apr
02:00
-2°
Voelt als: -4.6°
1008.7 hPa 0.5 mm -2.7°
2
67%
08:00
Voelt als: -2.2°
1007.3 hPa 0.9 mm -0.6°
2
71%
14:00
Voelt als: 0.3°
1005.8 hPa 1.2 mm 1.4°
2
76%
20:00
Voelt als: -0.8°
1004.1 hPa 2.4 mm -0.1°
2
85%
 04:22     21:17    Daglengte: 16:55 Woensdag 22 Apr
02:00
-1°
Voelt als: -3.5°
1004.5 hPa 2.3 mm -2.5°
2
74%
08:00
Voelt als: -1.1°
1005.0 hPa 2.1 mm -1.1°
1
74%
14:00
Voelt als: 0.3°
1006.4 hPa 1.8 mm 0.3°
1
77%
20:00
Voelt als: -1.1°
1007.9 hPa 1.5 mm -1.2°
1
82%
 04:18     21:22    Daglengte: 17:04 Donderdag 23 Apr
02:00
-2°
Voelt als: -3.1°
1008.9 hPa 1.3 mm -2.9°
1
79%
08:00
-0°
Voelt als: -2.8°
1009.4 hPa 1.3 mm -1.7°
2
77%
14:00
Voelt als: -0.6°
1010.2 hPa 1.0 mm -0.2°
2
76%
20:00
-0°
Voelt als: -2.2°
1010.9 hPa 1.2 mm -1.6°
2
80%
 04:13     21:26    Daglengte: 17:13 Vrijdag 24 Apr
02:00
-3°
Voelt als: -5.2°
1012.3 hPa 1.0 mm -3.9°
2
71%
08:00
-0°
Voelt als: -3.7°
1012.2 hPa 0.9 mm -1.8°
3
77%
  CAPE Lifted Index Hail Supercell Tornado SRH 3km CL BTM PRES CL TOP PRES Swiss DWD icon SMHI TS
 05:21     20:24    Daglengte: 15:03 Vandaag
14:00 17 J/kg 10.6 K 0 % 0 % 0 % 0 m²/s² 0 0 16.06 85
15:00 35 J/kg 10.2 K 0 % 0 % 0 % 0 m²/s² 0 0 15.21 3
16:00 32 J/kg 10.1 K 0 % 0 % 0 % 0 m²/s² 0 0 14.45 3
17:00 15 J/kg 10.0 K 0 % 0 % 0 % 0 m²/s² 0 0 13.18 3
18:00 16 J/kg 9.5 K 0 % 0 % 0 % 0 m²/s² 0 0 13.49 3
19:00 2 J/kg 9.3 K 0 % 0 % 0 % 0 m²/s² 0 0 12.45 85
20:00 0 J/kg 8.3 K 0 % 0 % 0 % 0 m²/s² 0 0 10.58 85
21:00 55 J/kg 7.7 K 0 % 0 % 0 % 0 m²/s² 0 0 9.08 85
22:00 19 J/kg 8.2 K 0 % 0 % 0 % 0 m²/s² 0 0 10.15 85
23:00 0 J/kg 7.6 K 0 % 0 % 0 % 0 m²/s² 0 0 8.53 85
 05:16     20:28    Daglengte: 15:12 Morgen
00:00 2 J/kg 8.6 K 0 % 0 % 0 % 0 m²/s² 0 0 9.32 85
01:00 22 J/kg 8.8 K 0 % 0 % 0 % 0 m²/s² 0 0 10.21 85
02:00 16 J/kg 8.9 K 0 % 0 % 0 % 0 m²/s² 0 0 9.89 85
03:00 31 J/kg 9.3 K 0 % 0 % 0 % 0 m²/s² 0 0 10.47 85
04:00 2 J/kg 9.8 K 0 % 0 % 0 % 0 m²/s² 0 0 11.36 85
05:00 0 J/kg 9.8 K 0 % 0 % 0 % 0 m²/s² 0 0 10.67 85
06:00 0 J/kg 9.1 K 0 % 0 % 0 % 0 m²/s² 0 0 10.09 85
07:00 0 J/kg 8.6 K 0 % 0 % 0 % 0 m²/s² 0 0 9.5 3
08:00 15 J/kg 7.5 K 0 % 0 % 0 % 0 m²/s² 0 0 8.37 3
09:00 29 J/kg 6.4 K 0 % 0 % 0 % 0 m²/s² 0 0 7.15 3
10:00 56 J/kg 5.1 K 0 % 0 % 0 % 0 m²/s² 0 0 5.82 3
11:00 97 J/kg 4.2 K 0 % 0 % 0 % 0 m²/s² 0 0 5.16 3
12:00 68 J/kg 4.2 K 0 % 0 % 0 % 0 m²/s² 0 0 5.04 3
13:00 85 J/kg 4.2 K 0 % 0 % 0 % 0 m²/s² 0 0 4.98 3
14:00 117 J/kg 3.7 K 0 % 0 % 0 % 0 m²/s² 0 0 4.48 3
15:00 43 J/kg 4.3 K 0 % 0 % 0 % 0 m²/s² 0 0 5.08 3
16:00 56 J/kg 4.6 K 0 % 0 % 0 % 0 m²/s² 0 0 5.38 3
17:00 23 J/kg 5.6 K 0 % 0 % 0 % 0 m²/s² 0 0 6.56 85
18:00 59 J/kg 5.5 K 0 % 0 % 0 % 0 m²/s² 0 0 6.58 85
19:00 13 J/kg 6.3 K 0 % 0 % 0 % 0 m²/s² 0 0 7.38 85
20:00 25 J/kg 6.3 K 0 % 0 % 0 % 0 m²/s² 0 0 7.2 86
21:00 28 J/kg 6.3 K 0 % 0 % 0 % 0 m²/s² 0 0 7.08 85
22:00 3 J/kg 6.4 K 0 % 0 % 0 % 0 m²/s² 0 0 7.24 85
23:00 1 J/kg 6.7 K 0 % 0 % 0 % 0 m²/s² 0 0 7.36 85
 05:12     20:32    Daglengte: 15:20 Zaterdag 11 Apr
00:00 19 J/kg 7.3 K 0 % 0 % 0 % 0 m²/s² 0 0 8.02 85
01:00 27 J/kg 7.6 K 0 % 0 % 0 % 0 m²/s² 0 0 8.44 85
02:00 18 J/kg 8.1 K 0 % 0 % 0 % 0 m²/s² 0 0 9.18 3
03:00 1 J/kg 8.6 K 0 % 0 % 0 % 0 m²/s² 0 0 9.47 3
04:00 0 J/kg 8.6 K 0 % 0 % 0 % 0 m²/s² 0 0 9.86 85
05:00 0 J/kg 8.4 K 0 % 0 % 0 % 0 m²/s² 0 0 9.72 85
06:00 0 J/kg 8.4 K 0 % 0 % 0 % 0 m²/s² 0 0 9.24 3
07:00 0 J/kg 8.5 K 0 % 0 % 0 % 0 m²/s² 0 0 9.34 3
08:00 2 J/kg 8.1 K 0 % 0 % 0 % 0 m²/s² 0 0 9.06 3
09:00 1 J/kg 7.6 K 0 % 0 % 0 % 0 m²/s² 0 0 8.53 3
10:00 72 J/kg 7.5 K 0 % 0 % 0 % 0 m²/s² 0 0 9.24 85
11:00 43 J/kg 8.0 K 0 % 0 % 0 % 0 m²/s² 0 0 10.43 85
12:00 54 J/kg 8.1 K 0 % 0 % 0 % 0 m²/s² 0 0 11.28 3
13:00 40 J/kg 8.7 K 0 % 0 % 0 % 0 m²/s² 0 0 11.49 85
14:00 36 J/kg 8.8 K 0 % 0 % 0 % 0 m²/s² 0 0 10.63 85
15:00 40 J/kg 9.0 K 0 % 0 % 0 % 0 m²/s² 0 0 11.67 85
16:00 31 J/kg 9.0 K 0 % 0 % 0 % 0 m²/s² 0 0 11.61 85
17:00 52 J/kg 8.7 K 0 % 0 % 0 % 0 m²/s² 0 0 11.25 85
18:00 49 J/kg 9.1 K 0 % 0 % 0 % 0 m²/s² 0 0 12.58 85
19:00 36 J/kg 9.9 K 0 % 0 % 0 % 0 m²/s² 0 0 13.65 85
20:00 20 J/kg 10.0 K 0 % 0 % 0 % 0 m²/s² 0 0 14.05 85
21:00 2 J/kg 10.5 K 0 % 0 % 0 % 0 m²/s² 0 0 15 3
22:00 0 J/kg 10.9 K 0 % 0 % 0 % 0 m²/s² 0 0 15.07 71
23:00 0 J/kg 11.4 K 0 % 0 % 0 % 0 m²/s² 0 0 15.69 71
 05:08     20:36    Daglengte: 15:28 Zondag 12 Apr
00:00 0 J/kg 11.4 K 0 % 0 % 0 % 0 m²/s² 0 0 15.69 71
01:00 0 J/kg 11.2 K 0 % 0 % 0 % 0 m²/s² 0 0 15.37 71
02:00 0 J/kg 10.8 K 0 % 0 % 0 % 0 m²/s² 0 0 14.67 71
03:00 0 J/kg 10.2 K 0 % 0 % 0 % 0 m²/s² 0 0 13.59 73
04:00 0 J/kg 9.5 K 0 % 0 % 0 % 0 m²/s² 0 0 12.71 73
05:00 0 J/kg 8.6 K 0 % 0 % 0 % 0 m²/s² 0 0 12.08 71
06:00 0 J/kg 7.6 K 0 % 0 % 0 % 0 m²/s² 0 0 10.72 86
07:00 0 J/kg 7.2 K 0 % 0 % 0 % 0 m²/s² 0 0 9.72 85
08:00 0 J/kg 6.8 K 0 % 0 % 0 % 0 m²/s² 0 0 8.3 85
09:00 0 J/kg 6.4 K 0 % 0 % 0 % 0 m²/s² 0 0 7.36 85
10:00 0 J/kg 6.2 K 0 % 0 % 0 % 0 m²/s² 0 0 7.25 85
11:00 0 J/kg 5.4 K 0 % 0 % 0 % 0 m²/s² 0 0 6.54 85
12:00 13 J/kg 4.3 K 0 % 0 % 0 % 0 m²/s² 0 0 5.29 85
13:00 62 J/kg 3.1 K 0 % 0 % 0 % 0 m²/s² 0 0 4.27 3
Temp Baro Wind Neerslag
  EWN Forecast EWN WRFDA DWD ICON FMI HIRLAM MET Norway GFS
 05:21     20:24    Daglengte: 15:03 Vandaag
14:00 -1.2° 1012.5 hPa 4.5 m/s 0.0 mm -1.7° 1010.1 hPa 5.3 m/s 1.5 mm -1.2° 1012.2 hPa 4.9 m/s -1.1 mm -1.7° 1012.8 hPa 4.8 m/s 0.0 mm 0.8° 1012.8 hPa 4.7 m/s -1.5° 1011.7 hPa 2.9 m/s
17:00 -1.0° 1013.3 hPa 2.8 m/s 0.0 mm -1.2° 1011.4 hPa 3.9 m/s 4.6 mm -0.6° 1012.4 hPa 5.1 m/s 0.0 mm -1.6° 1013.8 hPa 1.9 m/s 0.0 mm 0.4° 1013.6 hPa 2.6 m/s -1.6° 1012.7 hPa 2.3 m/s
20:00 -1.3° 1012.4 hPa 5.1 m/s 0.0 mm -2.8° 1010.8 hPa 4.5 m/s 5.5 mm -1.0° 1012.1 hPa 4.8 m/s 0.7 mm -1.1° 1012.0 hPa 5.2 m/s 0.0 mm -0.5° 1013.2 hPa 7.4 m/s -3.6° 1013.4 hPa 2.3 m/s
23:00 -1.8° 1012.9 hPa 5.4 m/s 0.0 mm -3.0° 1010.5 hPa 7.5 m/s 10.4 mm -1.6° 1012.8 hPa 5.2 m/s 1.1 mm -1.6° 1012.3 hPa 5.4 m/s 0.0 mm -1.4° 1013.6 hPa 5.6 m/s -2.9° 1013.3 hPa 3.7 m/s
 05:16     20:28    Daglengte: 15:12 Morgen
02:00 -2.4° 1013.4 hPa 5.3 m/s 2.8 mm -3.4° 1011.8 hPa 5.4 m/s 14.4 mm -2.1° 1013.5 hPa 5.1 m/s 1.8 mm -2.1° 1012.3 hPa 6.0 m/s 0.0 mm -2.3° 1014.1 hPa 5.4 m/s -3.5° 1014.0 hPa 3.5 m/s
05:00 -3.0° 1013.5 hPa 4.5 m/s 3.1 mm -4.3° 1012.0 hPa 5.4 m/s 17.5 mm -2.8° 1013.5 hPa 5.5 m/s 1.6 mm -2.7° 1012.5 hPa 5.6 m/s 0.0 mm -2.9° 1013.9 hPa 3.5 m/s -4.3° 1014.3 hPa 3.4 m/s
08:00 -2.7° 1013.2 hPa 4.8 m/s 1.3 mm -3.3° 1011.1 hPa 7.3 m/s 17.6 mm -2.7° 1013.6 hPa 4.4 m/s 0.5 mm -2.5° 1012.3 hPa 4.6 m/s 0.0 mm -1.9° 1013.4 hPa 6.0 m/s -3.3° 1013.4 hPa 3.6 m/s
11:00 -1.6° 1012.7 hPa 4.8 m/s 2.7 mm -1.6° 1010.5 hPa 9.1 m/s 18.3 mm -1.9° 1013.5 hPa 3.9 m/s 0.5 mm -1.4° 1012.1 hPa 4.5 m/s 0.0 mm -0.9° 1013.0 hPa 6.4 m/s -2.5° 1013.0 hPa 3.6 m/s
14:00 -0.6° 1012.3 hPa 5.7 m/s 2.5 mm -0.8° 1011.0 hPa 7.5 m/s 19.9 mm -1.1° 1012.8 hPa 4.3 m/s 0.3 mm -0.4° 1012.3 hPa 5.7 m/s 0.0 mm 0.8° 1012.4 hPa 7.2 m/s -1.6° 1013.5 hPa 3.9 m/s
17:00 -0.9° 1012.9 hPa 5.8 m/s 4.5 mm -1.4° 1012.4 hPa 6.9 m/s 21.8 mm -1.5° 1012.9 hPa 4.5 m/s 0.7 mm -0.5° 1012.9 hPa 4.6 m/s 0.0 mm 0.0° 1013.2 hPa 6.8 m/s -2.0° 1014.1 hPa 4.0 m/s
20:00 -1.8° 1014.8 hPa 4.0 m/s 5.0 mm -4.0° 1013.9 hPa 3.0 m/s 24.8 mm -2.0° 1014.4 hPa 3.9 m/s 2.2 mm -1.3° 1014.4 hPa 4.2 m/s 0.0 mm -1.1° 1015.1 hPa 5.2 m/s -3.2° 1015.7 hPa 3.3 m/s
23:00 -2.5° 1016.3 hPa 3.9 m/s 6.1 mm -3.0° 1015.0 hPa 2.2 m/s 28.0 mm -2.4° 1015.8 hPa 3.8 m/s 0.7 mm -1.9° 1015.9 hPa 4.9 m/s 0.0 mm -2.4° 1016.6 hPa 4.1 m/s -3.8° 1017.3 hPa 3.3 m/s
 05:12     20:32    Daglengte: 15:20 Zaterdag 11 Apr
02:00 -2.6° 1017.6 hPa 4.6 m/s 0.0 mm -3.6° 1016.3 hPa 4.2 m/s 31.1 mm -2.5° 1017.1 hPa 3.7 m/s 0.1 mm -1.8° 1017.1 hPa 6.1 m/s 0.0 mm -2.6° 1018.1 hPa 4.9 m/s -3.5° 1018.7 hPa 3.5 m/s
05:00 -2.5° 1018.3 hPa 5.1 m/s 2.3 mm -3.6° 1016.6 hPa 5.0 m/s 32.3 mm -2.5° 1018.0 hPa 4.2 m/s 0.3 mm -1.7° 1017.8 hPa 5.6 m/s 0.0 mm -2.4° 1018.9 hPa 5.5 m/s -3.4° 1018.9 hPa 3.7 m/s
08:00 -1.8° 1018.2 hPa 4.5 m/s 2.9 mm -2.3° 1016.5 hPa 6.6 m/s 32.9 mm -2.2° 1018.1 hPa 3.8 m/s 0.3 mm -1.3° 1017.8 hPa 5.6 m/s 0.0 mm -1.7° 1018.4 hPa 4.5 m/s -2.5° 1019.1 hPa 3.8 m/s
11:00 -0.2° 1018.3 hPa 6.1 m/s 5.5 mm -0.0° 1016.3 hPa 6.9 m/s 34.5 mm -1.4° 1018.4 hPa 4.0 m/s 0.8 mm 0.5° 1018.9 hPa 6.5 m/s -0.7° 1018.6 hPa 3.5 m/s
14:00 0.3° 1018.0 hPa 5.2 m/s 7.9 mm 0.3° 1015.8 hPa 6.2 m/s 34.9 mm -0.7° 1018.2 hPa 4.5 m/s 1.2 mm 1.5° 1018.2 hPa 5.1 m/s 0.0° 1018.1 hPa 3.1 m/s
17:00 0.0° 1016.6 hPa 5.5 m/s 2.7 mm -0.1° 1014.1 hPa 7.0 m/s 36.7 mm -0.3° 1016.8 hPa 3.5 m/s 1.0 mm 0.9° 1017.1 hPa 5.8 m/s -0.3° 1016.2 hPa 4.3 m/s
20:00 -0.7° 1014.8 hPa 4.1 m/s 0.0 mm -1.4° 1012.4 hPa 5.5 m/s 38.5 mm -0.5° 1014.8 hPa 2.5 m/s 0.5 mm 0.0° 1015.2 hPa 4.4 m/s -2.4° 1014.4 hPa 2.1 m/s
23:00 -1.7° 1012.3 hPa 3.0 m/s 10.0 mm -5.0° 1010.6 hPa 5.6 m/s 39.1 mm -1.8° 1012.2 hPa 1.8 m/s 0.6 mm -0.1° 1012.8 hPa 3.0 m/s -4.2° 1012.9 hPa 2.9 m/s
 05:08     20:36    Daglengte: 15:28 Zondag 12 Apr
02:00 -2.2° 1009.3 hPa 2.3 m/s 14.2 mm -6.3° 1007.9 hPa 5.3 m/s 39.1 mm -1.9° 1009.2 hPa 2.1 m/s 1.7 mm -0.3° 1010.3 hPa 1.6 m/s -6.1° 1011.0 hPa 3.2 m/s
05:00 -2.0° 1006.6 hPa 2.4 m/s 15.5 mm -6.7° 1004.3 hPa 3.4 m/s 39.1 mm -1.6° 1007.2 hPa 2.5 m/s 3.7 mm -0.4° 1007.1 hPa 1.9 m/s -7.4° 1007.6 hPa 2.8 m/s
08:00 -2.2° 1004.1 hPa 2.5 m/s 14.4 mm -4.5° 1002.7 hPa 2.8 m/s 39.1 mm -2.1° 1007.5 hPa 3.5 m/s 2.1 mm -0.5° 1003.9 hPa 2.2 m/s -5.3° 1005.8 hPa 1.2 m/s
11:00 -0.8° 1002.8 hPa 3.2 m/s 14.0 mm -1.6° 1001.8 hPa 4.4 m/s 39.1 mm -2.1° 1007.9 hPa 4.5 m/s 1.5 mm 0.2° 1001.8 hPa 1.9 m/s -2.7° 1004.3 hPa 0.9 m/s
14:00 0.2° 1002.3 hPa 3.3 m/s 13.4 mm -0.2° 1003.0 hPa 9.0 m/s 39.1 mm -1.8° 1008.8 hPa 3.9 m/s 0.5 mm 1.0° 999.8 hPa 1.6 m/s -2.0° 1005.0 hPa 3.5 m/s
17:00 0.2° 1000.6 hPa 2.2 m/s 25.2 mm 0.4° 1000.1 hPa 1.9 m/s -1.7° 1007.1 hPa 4.8 m/s 25.2 mm
20:00 -0.2° 1001.1 hPa 2.4 m/s 26.4 mm 0.1° 1000.2 hPa 2.1 m/s -3.3° 1010.8 hPa 5.8 m/s 26.4 mm
23:00 -0.5° 1002.4 hPa 2.2 m/s 26.9 mm 0.0° 1001.4 hPa 2.0 m/s -5.4° 1014.0 hPa 3.5 m/s 26.9 mm
 05:03     20:40    Daglengte: 15:37 Maandag 13 Apr
02:00 -0.6° 1003.6 hPa 2.2 m/s 27.9 mm -0.1° 1002.5 hPa 2.0 m/s -6.2° 1016.1 hPa 4.9 m/s 27.9 mm
05:00 -1.1° 1007.3 hPa 2.3 m/s 27.9 mm -0.3° 1006.4 hPa 2.4 m/s -10.2° 1017.4 hPa 1.2 m/s 27.9 mm
08:00 -1.1° 1010.9 hPa 2.6 m/s 28.2 mm -0.5° 1010.2 hPa 2.7 m/s -8.1° 1018.4 hPa 1.3 m/s 28.2 mm
11:00 -0.6° 1012.5 hPa 3.6 m/s 28.3 mm 0.0° 1012.0 hPa 3.9 m/s -6.6° 1019.0 hPa 1.3 m/s 28.3 mm
14:00 0.0° 1014.2 hPa 4.7 m/s 28.4 mm 0.5° 1013.7 hPa 5.0 m/s -5.4° 1019.4 hPa 1.6 m/s 28.4 mm
17:00 -0.3° 1014.4 hPa 3.5 m/s 28.4 mm 0.2° 1014.0 hPa 3.7 m/s -4.9° 1018.9 hPa 1.6 m/s 28.4 mm
20:00 -0.8° 1014.7 hPa 2.3 m/s 28.4 mm -0.2° 1014.3 hPa 2.4 m/s -7.1° 1018.9 hPa 1.5 m/s 28.4 mm
23:00 -1.1° 1012.8 hPa 2.8 m/s 28.4 mm -0.4° 1012.3 hPa 2.6 m/s -7.8° 1017.6 hPa 3.9 m/s 28.4 mm
 04:59     20:44    Daglengte: 15:45 Dinsdag 14 Apr
02:00 -1.2° 1010.7 hPa 3.1 m/s 28.4 mm -0.7° 1010.4 hPa 2.9 m/s -7.3° 1014.3 hPa 4.7 m/s 28.4 mm
05:00 -0.5° 1006.0 hPa 4.6 m/s 28.7 mm -0.1° 1005.6 hPa 4.6 m/s -5.4° 1009.9 hPa 5.1 m/s 28.7 mm
08:00 0.3° 1001.3 hPa 6.4 m/s 29.2 mm 0.5° 1000.9 hPa 6.3 m/s -2.3° 1005.2 hPa 7.0 m/s 29.2 mm
11:00 1.4° 998.8 hPa 6.1 m/s 32.0 mm 1.5° 998.5 hPa 6.2 m/s -0.1° 1001.5 hPa 5.5 m/s 32.0 mm
14:00 2.5° 996.4 hPa 5.9 m/s 34.6 mm 2.5° 996.2 hPa 6.0 m/s 2.1° 998.8 hPa 4.6 m/s 34.6 mm
17:00 2.5° 996.1 hPa 5.7 m/s 36.3 mm 2.5° 995.9 hPa 5.7 m/s 2.2° 997.7 hPa 5.3 m/s 36.3 mm
20:00 2.5° 995.8 hPa 5.3 m/s 37.7 mm 2.6° 995.6 hPa 5.4 m/s 1.5° 998.2 hPa 4.4 m/s 37.7 mm
23:00 2.5° 995.1 hPa 4.7 m/s 39.0 mm 2.7° 994.8 hPa 4.8 m/s 0.9° 999.5 hPa 3.8 m/s 39.0 mm
 04:54     20:48    Daglengte: 15:54 Woensdag 15 Apr
02:00 2.5° 994.4 hPa 4.1 m/s 39.6 mm 2.7° 993.9 hPa 4.2 m/s 0.8° 1000.0 hPa 3.3 m/s 39.6 mm
05:00 2.4° 994.8 hPa 4.5 m/s 40.2 mm 2.5° 994.3 hPa 4.8 m/s 1.0° 999.8 hPa 2.3 m/s 40.2 mm
08:00 2.3° 995.1 hPa 5.1 m/s 42.1 mm 2.4° 994.8 hPa 5.3 m/s 1.6° 998.5 hPa 2.5 m/s 42.1 mm
11:00 3.0° 996.8 hPa 6.7 m/s 47.0 mm 3.1° 996.8 hPa 7.1 m/s 1.9° 996.6 hPa 2.8 m/s 47.0 mm
14:00 3.8° 998.5 hPa 8.4 m/s 54.2 mm 3.9° 998.8 hPa 8.8 m/s 3.1° 994.9 hPa 4.0 m/s 54.2 mm
17:00 3.3° 998.0 hPa 8.7 m/s 58.6 mm 3.3° 998.4 hPa 8.9 m/s 3.2° 993.4 hPa 6.9 m/s 58.6 mm
20:00 2.8° 997.7 hPa 9.0 m/s 64.2 mm 2.8° 998.0 hPa 9.0 m/s 3.3° 993.8 hPa 8.7 m/s 64.2 mm
23:00 2.8° 998.5 hPa 7.0 m/s 67.6 mm 2.8° 998.8 hPa 6.8 m/s 2.0° 995.3 hPa 9.2 m/s 67.6 mm
 04:50     20:52    Daglengte: 16:02 Donderdag 16 Apr
02:00 2.7° 999.3 hPa 4.8 m/s 71.4 mm 2.9° 999.5 hPa 4.7 m/s 1.0° 997.0 hPa 5.9 m/s 71.4 mm
05:00 2.5° 998.7 hPa 6.3 m/s 74.6 mm 2.8° 998.7 hPa 6.4 m/s 0.1° 998.9 hPa 5.3 m/s 74.6 mm
08:00 2.4° 998.0 hPa 7.9 m/s 77.0 mm 2.6° 997.9 hPa 8.1 m/s -0.3° 999.5 hPa 6.0 m/s 77.0 mm
11:00 2.8° 998.3 hPa 7.2 m/s 78.7 mm 3.1° 998.1 hPa 7.4 m/s 0.0° 1000.4 hPa 5.6 m/s 78.7 mm
14:00 3.3° 998.5 hPa 6.5 m/s 80.0 mm 3.6° 998.3 hPa 6.7 m/s 0.3° 1001.0 hPa 4.5 m/s 80.0 mm
20:00 2.4° 1002.5 hPa 6.3 m/s 81.6 mm 2.7° 1002.5 hPa 6.7 m/s -1.3° 1002.4 hPa 2.1 m/s 81.6 mm
 04:45     20:56    Daglengte: 16:11 Vrijdag 17 Apr
02:00 1.2° 1004.3 hPa 3.1 m/s 82.2 mm 1.8° 1004.2 hPa 3.3 m/s -5.0° 1005.6 hPa 0.7 m/s 82.2 mm
08:00 1.3° 1011.0 hPa 2.3 m/s 83.0 mm 1.6° 1011.1 hPa 2.2 m/s -2.1° 1009.7 hPa 3.1 m/s 83.0 mm
14:00 3.2° 1013.9 hPa 3.1 m/s 84.3 mm 3.5° 1014.0 hPa 2.9 m/s 0.0° 1012.8 hPa 5.3 m/s 84.3 mm
20:00 2.2° 1012.5 hPa 7.8 m/s 87.2 mm 2.5° 1012.4 hPa 8.0 m/s -0.7° 1013.6 hPa 5.9 m/s 87.2 mm
 04:41     21:00    Daglengte: 16:19 Zaterdag 18 Apr
02:00 3.4° 1011.1 hPa 5.3 m/s 92.6 mm 3.7° 1011.2 hPa 5.2 m/s -0.4° 1010.3 hPa 6.4 m/s 92.6 mm
08:00 2.9° 1015.6 hPa 3.3 m/s 112.3 mm 3.0° 1016.4 hPa 3.1 m/s 2.1° 1007.4 hPa 5.8 m/s 112.3 mm
14:00 5.0° 1016.0 hPa 4.3 m/s 127.2 mm 5.1° 1016.4 hPa 4.1 m/s 3.3° 1011.0 hPa 6.7 m/s 127.2 mm
20:00 4.6° 1014.2 hPa 8.4 m/s 135.6 mm 4.8° 1014.0 hPa 8.8 m/s 2.9° 1016.9 hPa 4.1 m/s 135.6 mm
 04:36     21:05    Daglengte: 16:29 Zondag 19 Apr
02:00 2.8° 1020.8 hPa 5.1 m/s 138.9 mm 2.8° 1020.8 hPa 5.1 m/s 138.9 mm
08:00 1.1° 1004.7 hPa 5.0 m/s 1.3 mm
14:00 2.4° 1005.7 hPa 4.6 m/s 2.2 mm
20:00 0.7° 1007.0 hPa 4.2 m/s 2.1 mm
 04:32     21:09    Daglengte: 16:37 Maandag 20 Apr
02:00 -1.4° 1008.8 hPa 3.5 m/s 1.7 mm
08:00 0.0° 1010.0 hPa 3.2 m/s 1.3 mm
14:00 2.1° 1010.8 hPa 3.5 m/s 1.4 mm
20:00 0.2° 1009.8 hPa 2.5 m/s 1.7 mm
 04:27     21:13    Daglengte: 16:46 Dinsdag 21 Apr
02:00 -1.6° 1008.7 hPa 2.3 m/s 0.5 mm
08:00 0.5° 1007.3 hPa 2.3 m/s 0.9 mm
14:00 2.5° 1005.8 hPa 2.1 m/s 1.2 mm
20:00 0.9° 1004.1 hPa 1.6 m/s 2.4 mm
 04:22     21:17    Daglengte: 16:55 Woensdag 22 Apr
02:00 -1.4° 1004.5 hPa 1.6 m/s 2.3 mm
08:00 0.3° 1005.0 hPa 1.3 m/s 2.1 mm
14:00 1.8° 1006.4 hPa 1.5 m/s 1.8 mm
20:00 0.1° 1007.9 hPa 1.2 m/s 1.5 mm
 04:18     21:22    Daglengte: 17:04 Donderdag 23 Apr
02:00 -1.6° 1008.9 hPa 1.2 m/s 1.3 mm
08:00 -0.4° 1009.4 hPa 2.0 m/s 1.3 mm
14:00 1.5° 1010.2 hPa 1.9 m/s 1.0 mm
20:00 -0.1° 1010.9 hPa 1.7 m/s 1.2 mm
 04:13     21:26    Daglengte: 17:13 Vrijdag 24 Apr
02:00 -2.6° 1012.3 hPa 1.8 m/s 1.0 mm
08:00 -0.5° 1012.2 hPa 2.6 m/s 0.9 mm
FMI Hirlam - 7.5 km EWN WRFDA - 12 km DWD ICON - 7 km GFS - 25 km Basiskaart






























































Updatetijd (Europe/Amsterdam) Resolutie Lengte Stap
FMI Hirlam 13:45, 19:45, 01:45, 07:45 7.5 km 49h 1h
EWN WRFDA 09:30, 15:30, 21:30, 03:30 12 km 73h 1h
DWD ICON 11:45, 17:45, 23:45, 05:45 7 km 75h 1h
GFS 13:45, 19:45, 01:45, 07:45 25 km 237h 3h
30+ mm
25-30 mm
20-25 mm
15-20 mm
10-15 mm
6-10 mm
4-6 mm
2-4 mm
1-2 mm
0.5-1 mm
0.2-0.5 mm
0.1-0.2 mm
30+ mm
25-30 mm
20-25 mm
15-20 mm
10-15 mm
6-10 mm
4-6 mm
2-4 mm
1-2 mm
0.5-1 mm
0.2-0.5 mm
0.1-0.2 mm
Sneeuwval
Natte sneeuw
Hagel
Vorst
30+ mm
25-30 mm
20-25 mm
15-20 mm
10-15 mm
6-10 mm
4-6 mm
2-4 mm
1-2 mm
0.5-1 mm
0.2-0.5 mm
0.1-0.2 mm
Sneeuwval
Natte sneeuw
Hagel
Vorst
Onweer
50 mm
40 mm
30 mm
26 mm
22 mm
18 mm
14 mm
10 mm
9 mm
8 mm
7 mm
6 mm
5 mm
4.5 mm
4 mm
3.5 mm
3 mm
2.5 mm
2 mm
1.5 mm
1 mm
0.8 mm
0.6 mm
0.4 mm
0.2 mm
0.05 mm
35°
30°
25°
20°
15°
10°
-5°
-10°
-15°
-20°
-25°
-30°
-35°
120> km/h
105 km/h
90 km/h
75 km/h
60 km/h
50 km/h
40 km/h
30 km/h
20 km/h
10 km/h
0 km/h
2600 J/kg
2400 J/kg
2200 J/kg
2000 J/kg
1800 J/kg
1600 J/kg
1400 J/kg
1200 J/kg
1000 J/kg
800 J/kg
600 J/kg
400 J/kg
200 J/kg
70 dBZ
65 dBZ
60 dBZ
55 dBZ
50 dBZ
45 dBZ
40 dBZ
35 dBZ
30 dBZ
25 dBZ
20 dBZ
15 dBZ
10 dBZ
5 dBZ
-1 K
-2 K